Weather History for Rockford, IL

Change the Weather History Date:

Sunday, June 8, 2014

  Actual Average Record
Temperature  
Mean Temperature 62 °F 68 °F  
Max Temperature 71 °F 79 °F 98 °F (1934)
Min Temperature 53 °F 56 °F 36 °F (1913)
Degree Days  
Heating Degree Days 3 1  
Month to date heating degree days 6 17  
Since 1 June heating degree days 6 17  
Since 1 July heating degree days 7675 6555  
Cooling Degree Days 0 4  
Month to date cooling degree days 41 29  
Year to date cooling degree days 124 84  
Since 1 June cooling degree days 41 29  
Growing Degree Days 14 (Base 50)    
Moisture  
Dew Point 54 °F    
Average Humidity 68    
Maximum Humidity 90    
Minimum Humidity 45    
Precipitation  
Precipitation 0.00 in 0.16 in 2.19 in (2008)
Month to date precipitation 0.84 1.31  
Year to date precipitation 10.81 13.78  
Snow  
Snow 0.00 in 0.00 in 0.00 in ()
Month to date snowfall 0.0 0.0  
Since 1 June snowfall 0.0 0.0  
Since 1 July snowfall 56.9 36.7  
Snow Depth 0.00 in    
Sea Level Pressure  
Sea Level Pressure 30.01 in    
Wind  
Wind Speed 8 mph (NNE)    
Max Wind Speed 16 mph    
Max Gust Speed 22 mph    
Visibility 10 miles    
Events      
T = Trace of Precipitation, MM = Missing Value Source: NWS Daily Summary

Daily Weather History Graph

Daily Weather History Graph

Search for Another Location

Airport:

Trip Planner

Search our weather history database for the weather conditions in past years. The results will help you decide how hot, cold, wet, or windy it might be!

Date:

Astronomy

Jun. 08, 2014 Rise Set
Actual Time 5:20 AM CDT 8:30 PM CDT
Civil Twilight 4:45 AM CDT 9:05 PM CDT
Nautical Twilight 4:01 AM CDT 9:49 PM CDT
Astronomical Twilight 3:09 AM CDT 10:42 PM CDT
Moon 3:44 PM CDT (6/8) 2:18 AM CDT (6/8)
Length of Visible Light 16h 19m
Length of Day
15h 10m
Waxing Gibbous, 77% of the Moon is Illuminated
Jun 8
Waxing Gibbous
Jun 12
Full
Jun 19
Last Quarter
Jun 27
New
Jul 5
First Quarter

Hourly Weather History & Observations

Time (CDT) Temp. Dew Point Humidity Pressure Visibility Wind Dir Wind Speed Gust Speed Precip Events Conditions
12:54 AM 62.1 °F 57.9 °F 86% 29.88 in 10.0 mi NNE 12.7 mph - 0.00 in   Overcast
1:54 AM 62.1 °F 57.9 °F 86% 29.90 in 10.0 mi NNE 10.4 mph - N/A   Mostly Cloudy
2:54 AM 62.1 °F 57.9 °F 86% 29.91 in 10.0 mi North 12.7 mph - N/A   Mostly Cloudy
3:54 AM 62.1 °F 57.9 °F 86% 29.93 in 10.0 mi North 11.5 mph - N/A   Overcast
4:41 AM 62.1 °F 57.9 °F 86% 29.96 in 10.0 mi North 6.9 mph - N/A   Overcast
4:54 AM 62.1 °F 59.0 °F 90% 29.94 in 10.0 mi North 6.9 mph - N/A   Overcast
5:54 AM 62.1 °F 57.0 °F 84% 29.96 in 10.0 mi NE 9.2 mph - N/A   Overcast
6:18 AM 62.1 °F 55.9 °F 80% 29.97 in 10.0 mi NE 9.2 mph - N/A   Mostly Cloudy
6:54 AM 62.1 °F 55.0 °F 78% 29.98 in 10.0 mi NE 9.2 mph - N/A   Mostly Cloudy
7:54 AM 64.0 °F 55.9 °F 75% 30.03 in 10.0 mi North 6.9 mph - N/A   Mostly Cloudy
8:54 AM 66.0 °F 55.9 °F 70% 30.03 in 10.0 mi North 16.1 mph - N/A   Mostly Cloudy
9:54 AM 66.0 °F 55.9 °F 70% 30.04 in 10.0 mi NNE 10.4 mph - N/A   Overcast
10:54 AM 66.0 °F 57.0 °F 73% 30.04 in 10.0 mi North 9.2 mph - N/A   Overcast
11:54 AM 64.0 °F 57.0 °F 78% 30.06 in 10.0 mi NNW 8.1 mph - N/A   Overcast
12:54 PM 66.9 °F 57.0 °F 70% 30.05 in 10.0 mi North 9.2 mph - N/A   Overcast
1:54 PM 66.9 °F 55.9 °F 68% 30.05 in 10.0 mi NNE 10.4 mph - N/A   Overcast
2:52 PM 68.0 °F 55.4 °F 64% 30.06 in 10.0 mi North 4.6 mph - N/A   Overcast
2:54 PM 68.0 °F 55.9 °F 65% 30.06 in 10.0 mi North 5.8 mph - N/A   Overcast
3:54 PM 68.0 °F 55.9 °F 65% 30.04 in 10.0 mi ENE 6.9 mph - N/A   Overcast
4:54 PM 70.0 °F 55.9 °F 61% 30.03 in 10.0 mi ENE 4.6 mph - N/A   Overcast
5:54 PM 68.0 °F 46.9 °F 47% 30.04 in 10.0 mi East 8.1 mph - N/A   Mostly Cloudy
6:54 PM 68.0 °F 46.9 °F 47% 30.04 in 10.0 mi East 6.9 mph - N/A   Mostly Cloudy
7:54 PM 66.0 °F 46.0 °F 48% 30.05 in 10.0 mi East 4.6 mph - N/A   Mostly Cloudy
8:54 PM 63.0 °F 44.1 °F 50% 30.06 in 10.0 mi SE 3.5 mph - N/A   Mostly Cloudy
9:54 PM 57.9 °F 46.9 °F 67% 30.08 in 10.0 mi SSE 3.5 mph - N/A   Mostly Cloudy
10:54 PM 57.9 °F 45.0 °F 62% 30.08 in 10.0 mi Calm Calm - N/A   Mostly Cloudy
11:54 PM 55.9 °F 46.9 °F 72% 30.08 in 10.0 mi NNE 3.5 mph - N/A   Overcast